Time,TemperatureF,DewpointF,PressureIn,WindDirection,WindDirectionDegrees,WindSpeedMPH,WindSpeedGustMPH,Humidity,HourlyPrecipIn,Conditions,Clouds,dailyrainin,SolarRadiationWatts/m^2,SoftwareType,DateUTC
2013-06-24 00:13:00,66.6,63.0,30.05,SW,221,0.0,-999.0,88,-99.99,,,0.00,0,weatherlink.com 1.10,2013-06-24 04:13:00,
2013-06-24 00:28:00,66.2,63.0,30.05,SW,221,0.0,-999.0,89,-99.99,,,0.00,0,weatherlink.com 1.10,2013-06-24 04:28:00,
2013-06-24 00:43:00,66.1,63.0,30.05,SW,221,0.0,-999.0,89,-99.99,,,0.00,0,weatherlink.com 1.10,2013-06-24 04:43:00,
2013-06-24 00:58:00,65.9,63.0,30.05,SW,221,0.0,-999.0,89,-99.99,,,0.00,0,weatherlink.com 1.10,2013-06-24 04:58:00,
2013-06-24 01:13:00,65.8,63.0,30.05,SW,221,0.0,-999.0,90,-99.99,,,0.00,0,weatherlink.com 1.10,2013-06-24 05:13:00,
2013-06-24 01:28:00,65.9,63.0,30.04,SW,221,0.0,-999.0,90,-99.99,,,0.00,0,weatherlink.com 1.10,2013-06-24 05:28:00,
2013-06-24 01:58:00,66.0,63.0,30.04,SW,221,1.0,-999.0,90,-99.99,,,0.00,0,weatherlink.com 1.10,2013-06-24 05:58:00,
2013-06-24 02:13:00,65.9,63.0,30.04,SW,221,0.0,-999.0,90,-99.99,,,0.00,0,weatherlink.com 1.10,2013-06-24 06:13:00,
2013-06-24 02:43:00,65.4,63.0,30.04,SW,221,0.0,-999.0,90,-99.99,,,0.00,0,weatherlink.com 1.10,2013-06-24 06:43:00,
2013-06-24 02:58:00,65.0,62.0,30.03,SW,221,0.0,-999.0,90,-99.99,,,0.00,0,weatherlink.com 1.10,2013-06-24 06:58:00,
2013-06-24 03:43:00,64.9,62.0,30.03,SW,221,0.0,-999.0,91,-99.99,,,0.00,0,weatherlink.com 1.10,2013-06-24 07:43:00,
2013-06-24 04:13:00,65.0,63.0,30.03,SW,221,0.0,-999.0,92,-99.99,,,0.00,0,weatherlink.com 1.10,2013-06-24 08:13:00,
2013-06-24 04:28:00,65.1,63.0,30.03,SW,221,0.0,-999.0,92,-99.99,,,0.00,0,weatherlink.com 1.10,2013-06-24 08:28:00,
2013-06-24 04:43:00,65.3,63.0,30.03,SW,221,0.0,-999.0,92,-99.99,,,0.00,0,weatherlink.com 1.10,2013-06-24 08:43:00,
2013-06-24 04:58:00,65.4,63.0,30.03,SW,221,0.0,-999.0,92,-99.99,,,0.00,0,weatherlink.com 1.10,2013-06-24 08:58:00,
2013-06-24 05:13:00,65.6,63.0,30.04,SW,221,0.0,-999.0,92,-99.99,,,0.00,0,weatherlink.com 1.10,2013-06-24 09:13:00,
2013-06-24 05:28:00,65.7,63.0,30.03,SW,221,0.0,-999.0,91,-99.99,,,0.00,0,weatherlink.com 1.10,2013-06-24 09:28:00,
2013-06-24 06:13:00,66.7,63.0,30.04,SSW,198,3.0,-999.0,89,-99.99,,,0.00,28,weatherlink.com 1.10,2013-06-24 10:13:00,
2013-06-24 06:28:00,67.2,64.0,30.05,SSW,198,1.0,-999.0,88,-99.99,,,0.00,39,weatherlink.com 1.10,2013-06-24 10:28:00,
2013-06-24 06:43:00,67.7,63.0,30.05,SSW,198,4.0,-999.0,86,-99.99,,,0.00,84,weatherlink.com 1.10,2013-06-24 10:43:00,
2013-06-24 06:58:00,68.4,64.0,30.05,SW,219,2.0,-999.0,86,-99.99,,,0.00,264,weatherlink.com 1.10,2013-06-24 10:58:00,
2013-06-24 07:28:00,71.3,65.0,30.05,South,183,1.0,-999.0,81,-99.99,,,0.00,178,weatherlink.com 1.10,2013-06-24 11:28:00,
2013-06-24 07:43:00,72.7,66.0,30.05,SSW,192,2.0,-999.0,78,-99.99,,,0.00,406,weatherlink.com 1.10,2013-06-24 11:43:00,
2013-06-24 07:58:00,74.0,66.0,30.05,South,182,3.0,-999.0,76,-99.99,,,0.00,214,weatherlink.com 1.10,2013-06-24 11:58:00,
2013-06-24 08:13:00,73.9,66.0,30.05,SSW,197,1.0,-999.0,77,-99.99,,,0.00,434,weatherlink.com 1.10,2013-06-24 12:13:00,
2013-06-24 08:28:00,74.5,66.0,30.05,South,185,3.0,-999.0,75,-99.99,,,0.00,290,weatherlink.com 1.10,2013-06-24 12:28:00,
2013-06-24 08:43:00,74.6,67.0,30.05,South,186,0.0,-999.0,76,-99.99,,,0.00,485,weatherlink.com 1.10,2013-06-24 12:43:00,
2013-06-24 09:13:00,77.2,67.0,30.04,South,188,3.0,-999.0,71,-99.99,,,0.00,522,weatherlink.com 1.10,2013-06-24 13:13:00,
2013-06-24 09:28:00,77.7,68.0,30.04,SW,224,1.0,-999.0,72,-99.99,,,0.00,415,weatherlink.com 1.10,2013-06-24 13:28:00,
2013-06-24 09:43:00,79.2,68.0,30.04,WSW,237,0.0,-999.0,68,-99.99,,,0.00,388,weatherlink.com 1.10,2013-06-24 13:43:00,
2013-06-24 09:58:00,78.9,67.0,30.03,SW,227,10.0,-999.0,68,-99.99,,,0.00,761,weatherlink.com 1.10,2013-06-24 13:58:00,
2013-06-24 10:13:00,81.0,68.0,30.04,WNW,301,0.0,-999.0,65,-99.99,,,0.00,777,weatherlink.com 1.10,2013-06-24 14:13:00,
2013-06-24 10:28:00,81.0,68.0,30.03,SW,236,3.0,-999.0,64,-99.99,,,0.00,756,weatherlink.com 1.10,2013-06-24 14:28:00,
2013-06-24 10:43:00,81.4,69.0,30.03,West,267,2.0,-999.0,65,-99.99,,,0.00,868,weatherlink.com 1.10,2013-06-24 14:43:00,
2013-06-24 10:58:00,81.8,68.0,30.03,West,259,2.0,-999.0,64,-99.99,,,0.00,875,weatherlink.com 1.10,2013-06-24 14:58:00,
2013-06-24 11:13:00,81.3,67.0,30.03,WSW,237,4.0,-999.0,63,-99.99,,,0.00,940,weatherlink.com 1.10,2013-06-24 15:13:00,
2013-06-24 11:28:00,81.6,68.0,30.04,WSW,238,6.0,-999.0,63,-99.99,,,0.00,1004,weatherlink.com 1.10,2013-06-24 15:28:00,
2013-06-24 11:58:00,82.5,68.0,30.04,NW,307,1.0,-999.0,62,-99.99,,,0.00,986,weatherlink.com 1.10,2013-06-24 15:58:00,
2013-06-24 12:13:00,83.7,68.0,30.03,NW,321,4.0,-999.0,59,-99.99,,,0.00,1046,weatherlink.com 1.10,2013-06-24 16:13:00,
2013-06-24 12:28:00,84.3,68.0,30.03,NNW,330,1.0,-999.0,58,-99.99,,,0.00,969,weatherlink.com 1.10,2013-06-24 16:28:00,
2013-06-24 12:43:00,83.9,67.0,30.03,SSE,157,3.0,-999.0,58,-99.99,,,0.00,925,weatherlink.com 1.10,2013-06-24 16:43:00,
2013-06-24 13:13:00,84.9,66.0,30.02,WNW,300,9.0,-999.0,53,-99.99,,,0.00,984,weatherlink.com 1.10,2013-06-24 17:13:00,
2013-06-24 13:28:00,85.3,68.0,30.01,SW,223,3.0,-999.0,56,-99.99,,,0.00,1063,weatherlink.com 1.10,2013-06-24 17:28:00,
2013-06-24 13:43:00,84.3,67.0,30.00,SW,221,6.0,-999.0,56,-99.99,,,0.00,220,weatherlink.com 1.10,2013-06-24 17:43:00,
2013-06-24 13:58:00,82.4,66.0,30.00,WSW,244,7.0,-999.0,58,-99.99,,,0.00,239,weatherlink.com 1.10,2013-06-24 17:58:00,
2013-06-24 14:13:00,81.7,67.0,29.99,SW,232,4.0,-999.0,61,-99.99,,,0.00,239,weatherlink.com 1.10,2013-06-24 18:13:00,
2013-06-24 14:43:00,81.6,67.0,29.99,WSW,251,2.0,-999.0,61,-99.99,,,0.00,169,weatherlink.com 1.10,2013-06-24 18:43:00,
2013-06-24 14:58:00,81.1,68.0,29.98,SSW,211,1.0,-999.0,65,-99.99,,,0.00,179,weatherlink.com 1.10,2013-06-24 18:58:00,
2013-06-24 15:43:00,81.1,69.0,29.95,West,264,4.0,-999.0,66,-99.99,,,0.00,327,weatherlink.com 1.10,2013-06-24 19:43:00,
2013-06-24 15:58:00,80.1,68.0,29.95,SW,225,2.0,-999.0,67,-99.99,,,0.00,313,weatherlink.com 1.10,2013-06-24 19:58:00,
2013-06-24 16:13:00,80.3,69.0,29.95,WSW,247,6.0,-999.0,69,-99.99,,,0.00,411,weatherlink.com 1.10,2013-06-24 20:13:00,
2013-06-24 16:28:00,81.0,69.0,29.95,SW,215,4.0,-999.0,68,-99.99,,,0.00,519,weatherlink.com 1.10,2013-06-24 20:28:00,
2013-06-24 16:43:00,80.3,62.0,29.98,West,277,4.0,-999.0,53,-99.99,,,0.00,65,weatherlink.com 1.10,2013-06-24 20:43:00,
2013-06-24 16:58:00,76.7,60.0,29.98,NW,321,1.0,-999.0,56,-99.99,,,0.00,58,weatherlink.com 1.10,2013-06-24 20:58:00,
2013-06-24 17:13:00,74.0,58.0,29.99,WNW,303,0.0,-999.0,58,-99.99,,,0.00,40,weatherlink.com 1.10,2013-06-24 21:13:00,
2013-06-24 17:28:00,71.9,60.0,30.02,SW,217,5.0,-999.0,66,-99.99,,,0.00,69,weatherlink.com 1.10,2013-06-24 21:28:00,
2013-06-24 17:43:00,69.8,59.0,30.03,ESE,118,0.0,-999.0,68,-99.99,,,0.00,40,weatherlink.com 1.10,2013-06-24 21:43:00,
2013-06-24 17:58:00,68.2,61.0,30.01,NNW,348,2.0,-999.0,77,-99.99,,,0.00,19,weatherlink.com 1.10,2013-06-24 21:58:00,
2013-06-24 18:13:00,66.7,61.0,30.02,WSW,238,4.0,-999.0,81,-99.99,,,0.02,19,weatherlink.com 1.10,2013-06-24 22:13:00,
2013-06-24 18:28:00,65.6,61.0,30.01,South,188,2.0,-999.0,85,-99.99,,,0.03,28,weatherlink.com 1.10,2013-06-24 22:28:00,
2013-06-24 18:43:00,65.1,61.0,30.01,SSW,195,0.0,-999.0,87,-99.99,,,0.03,46,weatherlink.com 1.10,2013-06-24 22:43:00,
2013-06-24 19:13:00,64.9,61.0,30.00,SSW,195,0.0,-999.0,88,-99.99,,,0.03,62,weatherlink.com 1.10,2013-06-24 23:13:00,
2013-06-24 19:43:00,64.9,61.0,29.98,SSW,195,0.0,-999.0,88,-99.99,,,0.03,47,weatherlink.com 1.10,2013-06-24 23:43:00,
2013-06-24 20:13:00,64.9,61.0,29.99,South,169,0.0,-999.0,87,-99.99,,,0.03,25,weatherlink.com 1.10,2013-06-25 00:13:00,
2013-06-24 20:28:00,65.2,61.0,29.99,South,169,0.0,-999.0,87,-99.99,,,0.03,9,weatherlink.com 1.10,2013-06-25 00:28:00,
2013-06-24 20:43:00,65.1,62.0,29.99,South,169,0.0,-999.0,88,-99.99,,,0.03,0,weatherlink.com 1.10,2013-06-25 00:43:00,
2013-06-24 20:58:00,64.7,62.0,30.00,South,169,0.0,-999.0,89,-99.99,,,0.03,0,weatherlink.com 1.10,2013-06-25 00:58:00,
2013-06-24 21:13:00,64.4,61.0,30.00,South,169,0.0,-999.0,89,-99.99,,,0.03,0,weatherlink.com 1.10,2013-06-25 01:13:00,
2013-06-24 21:28:00,64.1,61.0,30.00,South,186,3.0,-999.0,89,-99.99,,,0.03,0,weatherlink.com 1.10,2013-06-25 01:28:00,
2013-06-24 21:43:00,63.9,61.0,30.00,South,180,0.0,-999.0,90,-99.99,,,0.03,0,weatherlink.com 1.10,2013-06-25 01:43:00,
2013-06-24 21:58:00,63.6,61.0,30.00,South,180,0.0,-999.0,90,-99.99,,,0.03,0,weatherlink.com 1.10,2013-06-25 01:58:00,
2013-06-24 22:14:00,63.4,61.0,30.00,South,180,0.0,-999.0,91,-99.99,,,0.03,0,weatherlink.com 1.10,2013-06-25 02:14:00,
2013-06-24 22:43:00,62.9,60.0,29.99,South,180,0.0,-999.0,91,-99.99,,,0.03,0,weatherlink.com 1.10,2013-06-25 02:43:00,
2013-06-24 22:58:00,62.6,60.0,30.00,South,180,0.0,-999.0,91,-99.99,,,0.03,0,weatherlink.com 1.10,2013-06-25 02:58:00,
2013-06-24 23:13:00,62.5,60.0,30.00,South,180,2.0,-999.0,91,-99.99,,,0.03,0,weatherlink.com 1.10,2013-06-25 03:13:00,
2013-06-24 23:58:00,62.2,60.0,30.01,South,188,2.0,-999.0,92,-99.99,,,0.03,0,weatherlink.com 1.10,2013-06-25 03:58:00,